Weather Roundup
Issued by NWS Chicago, IL

Home | Current Version | Previous Version | Graphics & Text | Print | Product List | Glossary On
Versions: 1 2 3 4 5 6 7 8 9 10 11 12 13 14 15 16 17 18 19 20 21 22 23 24 25 26 27 28 29 30 31 32 33 34 35 36 37 38 39 40 41 42 43 44 45 46 47 48 49 50
000
NZUS59 KLOT 061408
HRRLOT

CHICAGO AREA WEATHER ROUNDUP
NATIONAL WEATHER SERVICE CHICAGO/ROMEOVILLE IL
900 AM CDT WED MAY 06 2015

NOTE: "FAIR" INDICATES FEW OR NO CLOUDS BELOW 12,000 FEET WITH NO
SIGNIFICANT WEATHER AND/OR OBSTRUCTIONS TO VISIBILITY.

* THESE STATIONS ARE NOT UNDER NWS QUALITY CONTROL. THEY ALSO MAY NOT
  REPORT WEATHER SUCH AS PRECIPITATION OR FOG.

ILZ005-006-012>014-019>023-061500-
NORTHEAST ILLINOIS

CITY           SKY/WX    TMP DP  RH WIND       PRES   REMARKS
OHARE          FOG       53  53 100 CALM      30.18F VSB 1/4
MIDWAY         FOG       57  56  96 SE6       30.19S VSB 1/4
AURORA         FOG       58  55  90 E8        30.18F VSB 1
LANSING*       CLOUDY    59  57  94 S6        30.19S FOG
JOLIET*        FOG       60  59  99 E5        30.18S VSB 1
WAUKEGAN       FOG       49  49 100 CALM      30.20S VSB 1/4
DUPAGE AIRPORT CLOUDY    55  55 100 E5        30.18S FOG
WHEELING       FOG       52  52 100 CALM      30.21S VSB 1/4
KANKAKEE*      CLOUDY    64  62  94 SE7       30.18F FOG
MORRIS*        FOG       60  59  98 E6        30.16S VSB<1/4
LEWIS AIRPORT* FOG       57  57 100 E5        30.18S VSB 1
NORTHERLY IS     N/A     52  51  97 CALM        N/A
$$

WIZ051-052-058>065-066-070>072-061500-
SOUTHEAST WISCONSIN

CITY           SKY/WX    TMP DP  RH WIND       PRES   REMARKS
MILWAUKEE      FOG       48  46  93 NE3       30.21F VSB 1
KENOSHA*       FOG       51  50  96 E3        30.20F VSB 1/4
RACINE*        FOG       49  48  97 CALM      30.22F VSB 1/2
WAUKESHA       CLOUDY    50  48  93 E6        30.21S FOG
$$

INZ001>003-010>013-019-020-061500-
NORTHWEST INDIANA

CITY           SKY/WX    TMP DP  RH WIND       PRES   REMARKS
GARY*          CLOUDY    59 N/A N/A SE8       30.19S FOG
MICHIGAN CITY* NOT AVBL
RENSSELAER*    NOT AVBL
VALPARAISO     CLOUDY    58  55  90 E6        30.21S FOG
$$

LMZ740>746-061500-
SOUTHERN LAKE MICHIGAN

STATION/POSITION TIME  SKY/WX   TEMP WIND        PRES    VSBY
                                AIR  DIR/SP/G
                 (UTC)          (F)  (DEG/KT/KT) (MB)    (MI)
HARRISON CRIB    1300            48  120/  2/  3   N/A
BURNHAM HARBOR   1400            52     CALM       N/A
CALUMET HARBOR   1300            50   CALM  /  1   N/A
BURNS HARBOR     1300            59  170/  4/  7 1022.7S
MICHIGAN CITY    1300            57  120/  6/  8   N/A
$$

ABBREVIATIONS USED IN REMARKS
   TC - TEMPERATURE IN CELSIUS
  WCI - WIND CHILL INDEX
   HX - HEAT INDEX
  VSB - VISIBILITY
$$



USA.gov is the U.S. government's official web portal to all federal, state and local government web resources and services.